CW2671 Weather Reports


time (UTC)temp
F
wind
direction
speed
knots
gust
knots
rain 1hr
in
rain 24hr
in
rain mn
in
humidity
%
barometer
mb
20260505081605 60 233 0.0 1.7 0.00 0.00 0.00 71 1010.4
20260505080056 61 224 0.0 0.9 0.00 0.00 0.00 70 1010.5
20260505074600 61 221 0.0 0.0 0.00 0.00 0.00 70 1010.5
20260505073105 61 219 0.0 1.7 0.00 0.00 0.00 70 1010.4
20260505071559 61 261 0.0 0.9 0.00 0.00 0.00 70 1010.4
20260505070054 61 229 0.0 3.5 0.00 0.00 0.00 69 1010.4
20260505064551 60 236 0.0 3.5 0.00 0.00 0.00 68 1010.2
20260505063050 61 5 0.0 0.0 0.00 0.00 0.00 67 1010.3
20260505061553 61 167 0.0 0.9 0.00 0.00 0.00 66 1010.3
20260505060047 61 264 0.0 1.7 0.00 0.00 0.00 66 1010.2
20260505054607 61 217 0.0 2.6 0.00 0.00 0.00 65 1010.4
20260505053059 61 112 0.0 0.9 0.00 0.00 0.00 65 1010.5
20260505051544 61 252 0.0 1.7 0.00 0.00 0.00 65 1010.5
20260505041539 62 123 0.0 2.6 0.00 0.00 0.00 63 1010.3
20260505040037 62 93 0.0 2.6 0.00 0.00 0.00 63 1010.5
20260505034537 62 249 0.0 1.7 0.00 0.00 0.00 63 1010.5
20260505033036 62 113 0.0 2.6 0.00 0.00 0.00 62 1010.4
20260505031546 62 82 0.0 2.6 0.00 0.00 0.00 62 1010.3
20260505030035 62 70 0.0 0.9 0.00 0.00 0.00 59 1010.5
20260505024539 62 98 0.0 0.9 0.00 0.00 0.00 57 1010.7
20260505023034 62 66 0.0 2.6 0.00 0.00 0.00 55 1010.7
20260505021534 63 105 0.0 3.5 0.00 0.00 0.00 52 1010.6
20260505020034 63 53 0.0 1.7 0.00 0.00 0.00 51 1010.6
20260505014536 64 102 0.0 1.7 0.00 0.00 0.00 49 1010.6
20260505013032 65 110 0.0 0.9 0.00 0.00 0.00 48 1010.6
20260505011535 65 61 0.0 1.7 0.00 0.00 0.00 47 1010.4
20260505010030 66 108 0.0 0.9 0.00 0.00 0.00 45 1010.4
20260505004543 66 108 0.0 1.7 0.00 0.00 0.00 44 1010.1
20260505003031 67 8 0.0 0.9 0.00 0.00 0.00 43 1010.0
20260505001528 67 115 0.0 0.9 0.00 0.00 0.00 42 1009.9
20260505000039 68 62 0.0 2.6 0.00 0.00 0.00 41 1009.8
20260504234526 69 266 0.0 0.9 0.00 0.00 0.00 39 1009.7
20260504233027 70 91 0.0 3.5 0.00 0.00 0.00 38 1009.6
20260504231525 71 216 0.9 5.2 0.00 0.00 0.00 37 1009.6
20260504230025 71 238 0.9 8.7 0.00 0.00 0.00 36 1009.5
20260504224524 71 239 0.9 6.1 0.00 0.00 0.00 35 1009.6
20260504223024 72 212 0.9 4.3 0.00 0.00 0.00 35 1009.6
20260504221521 73 272 0.0 7.0 0.00 0.00 0.00 34 1009.6
20260504220022 74 281 0.0 4.3 0.00 0.00 0.00 33 1009.8
20260504214521 74 112 2.6 7.8 0.00 0.00 0.00 32 1009.8
20260504213020 75 236 1.7 6.1 0.00 0.00 0.00 31 1009.8
20260504211519 74 241 1.7 7.0 0.00 0.00 0.00 31 1009.8
20260504210022 74 293 0.9 9.6 0.00 0.00 0.00 34 1009.8
20260504204517 74 77 3.5 8.7 0.00 0.00 0.00 33 1009.9
20260504203016 75 70 1.7 6.1 0.00 0.00 0.00 32 1009.9
20260504200013 75 214 0.9 6.1 0.00 0.00 0.00 33 1009.8
20260504194511 74 285 0.9 9.6 0.00 0.00 0.00 33 1010.2
20260504193009 74 284 0.9 5.2 0.00 0.00 0.00 33 1010.2
20260504191507 75 121 0.0 4.3 0.00 0.00 0.00 34 1010.5
20260504190004 74 135 1.7 8.7 0.00 0.00 0.00 33 1010.7
20260504184502 74 82 0.9 8.7 0.00 0.00 0.00 32 1011.0
20260504183106 73 100 1.7 8.7 0.00 0.00 0.00 32 1011.1
20260504181600 73 238 0.0 7.0 0.00 0.00 0.00 33 1011.4
20260504174553 72 208 1.7 6.1 0.00 0.00 0.00 33 1011.9
20260504173050 72 245 0.9 7.8 0.00 0.00 0.00 33 1012.0
20260504171547 71 91 0.9 7.8 0.00 0.00 0.00 34 1012.3